owner,sensor,date,latitude,longitude,vertical_datum,wind_speed,wind_to_direction,wind_speed_of_gust,qcFlag 
TCOON,ioos:station:TCOON:009:1,2008-01-01T00:00:00Z,27.8398,-97.0727,0.0,3.0,77.0,3.2,'11111222,11111222,11111222' 
TCOON,ioos:station:TCOON:009:1,2008-01-01T01:00:00Z,27.8398,-97.0727,0.0,3.7,81.0,4.2,'11111222,11111222,11111222' 
TCOON,ioos:station:TCOON:009:1,2008-01-01T03:00:00Z,27.8398,-97.0727,0.0,5.9,19.0,8.8,'11111222,11111222,11111222' 
TCOON,ioos:station:TCOON:009:1,2008-01-01T04:00:00Z,27.8398,-97.0727,0.0,10.8,28.0,13.1,'11111222,11111222,11111222' 
TCOON,ioos:station:TCOON:009:1,2008-01-01T05:00:00Z,27.8398,-97.0727,0.0,10.5,24.0,13.0,'11111222,11111222,11111222' 
TCOON,ioos:station:TCOON:009:1,2008-01-01T06:00:00Z,27.8398,-97.0727,0.0,11.8,30.0,15.3,'11111222,11111222,11111222' 
TCOON,ioos:station:TCOON:009:1,2008-01-01T07:00:00Z,27.8398,-97.0727,0.0,12.0,31.0,15.2,'11111222,11111222,11111222' 
TCOON,ioos:station:TCOON:009:1,2008-01-01T08:00:00Z,27.8398,-97.0727,0.0,9.6,31.0,12.4,'11111222,11111222,11111222' 
TCOON,ioos:station:TCOON:009:1,2008-01-01T09:00:00Z,27.8398,-97.0727,0.0,12.7,28.0,16.2,'11111222,11111222,11111222' 
TCOON,ioos:station:TCOON:009:1,2008-01-01T10:00:00Z,27.8398,-97.0727,0.0,11.1,30.0,15.2,'11111222,11111222,11111222' 
TCOON,ioos:station:TCOON:009:1,2008-01-01T11:00:00Z,27.8398,-97.0727,0.0,10.6,32.0,13.4,'11111222,11111222,11111222' 
TCOON,ioos:station:TCOON:009:1,2008-01-01T12:00:00Z,27.8398,-97.0727,0.0,10.6,29.0,13.5,'11111222,11111222,11111222' 
TCOON,ioos:station:TCOON:009:1,2008-01-01T13:00:00Z,27.8398,-97.0727,0.0,10.4,32.0,13.3,'11111222,11111222,11111222' 
TCOON,ioos:station:TCOON:009:1,2008-01-01T14:00:00Z,27.8398,-97.0727,0.0,9.6,24.0,12.2,'11111222,11111222,11111222' 
TCOON,ioos:station:TCOON:009:1,2008-01-01T15:00:00Z,27.8398,-97.0727,0.0,9.4,23.0,12.0,'11111222,11111222,11111222' 
TCOON,ioos:station:TCOON:009:1,2008-01-01T16:00:00Z,27.8398,-97.0727,0.0,8.5,13.0,10.9,'11111222,11111222,11111222' 
TCOON,ioos:station:TCOON:009:1,2008-01-01T18:00:00Z,27.8398,-97.0727,0.0,9.1,15.0,12.2,'11111222,11111222,11111222' 
TCOON,ioos:station:TCOON:009:1,2008-01-01T19:00:00Z,27.8398,-97.0727,0.0,9.8,26.0,11.8,'11111222,11111222,11111222' 
TCOON,ioos:station:TCOON:009:1,2008-01-01T20:00:00Z,27.8398,-97.0727,0.0,9.6,28.0,11.9,'11111222,11111222,11111222' 
TCOON,ioos:station:TCOON:009:1,2008-01-01T21:00:00Z,27.8398,-97.0727,0.0,6.9,31.0,9.0,'11111222,11111222,11111222' 
TCOON,ioos:station:TCOON:009:1,2008-01-01T22:00:00Z,27.8398,-97.0727,0.0,6.6,25.0,7.7,'11111222,11111222,11111222' 
TCOON,ioos:station:TCOON:009:1,2008-01-01T23:00:00Z,27.8398,-97.0727,0.0,7.3,19.0,9.1,'11111222,11111222,11111222' 
TCOON,ioos:station:TCOON:009:1,2008-01-02T00:00:00Z,27.8398,-97.0727,0.0,6.8,18.0,8.7,'11111222,11111222,11111222' 
TCOON,ioos:station:TCOON:009:1,2008-01-02T01:00:00Z,27.8398,-97.0727,0.0,5.3,11.0,6.7,'11111222,11111222,11111222' 
TCOON,ioos:station:TCOON:009:1,2008-01-02T02:00:00Z,27.8398,-97.0727,0.0,3.8,5.0,4.6,'11111222,11111222,11111222' 
TCOON,ioos:station:TCOON:009:1,2008-01-02T03:00:00Z,27.8398,-97.0727,0.0,6.7,21.0,9.3,'11111222,11111222,11111222' 
TCOON,ioos:station:TCOON:009:1,2008-01-02T04:00:00Z,27.8398,-97.0727,0.0,5.9,36.0,7.5,'11111222,11111222,11111222' 
TCOON,ioos:station:TCOON:009:1,2008-01-02T05:00:00Z,27.8398,-97.0727,0.0,6.1,34.0,7.0,'11111222,11111222,11111222' 
TCOON,ioos:station:TCOON:009:1,2008-01-02T06:00:00Z,27.8398,-97.0727,0.0,5.6,34.0,6.8,'11111222,11111222,11111222' 
TCOON,ioos:station:TCOON:009:1,2008-01-02T07:00:00Z,27.8398,-97.0727,0.0,5.5,31.0,6.9,'11111222,11111222,11111222' 
TCOON,ioos:station:TCOON:009:1,2008-01-02T09:00:00Z,27.8398,-97.0727,0.0,5.6,21.0,6.5,'11111222,11111222,11111222' 
TCOON,ioos:station:TCOON:009:1,2008-01-02T10:00:00Z,27.8398,-97.0727,0.0,5.5,24.0,7.1,'11111222,11111222,11111222' 
TCOON,ioos:station:TCOON:009:1,2008-01-02T11:00:00Z,27.8398,-97.0727,0.0,9.3,31.0,12.0,'11111222,11111222,11111222' 
TCOON,ioos:station:TCOON:009:1,2008-01-02T12:00:00Z,27.8398,-97.0727,0.0,7.9,33.0,9.3,'11111222,11111222,11111222' 
TCOON,ioos:station:TCOON:009:1,2008-01-02T13:00:00Z,27.8398,-97.0727,0.0,7.1,29.0,9.5,'11111222,11111222,11111222' 
TCOON,ioos:station:TCOON:009:1,2008-01-02T14:00:00Z,27.8398,-97.0727,0.0,6.3,32.0,8.2,'11111222,11111222,11111222' 
TCOON,ioos:station:TCOON:009:1,2008-01-02T17:00:00Z,27.8398,-97.0727,0.0,7.0,29.0,9.2,'11111222,11111222,11111222' 
TCOON,ioos:station:TCOON:009:1,2008-01-02T18:00:00Z,27.8398,-97.0727,0.0,7.0,42.0,11.8,'11111222,11111222,11111222' 
TCOON,ioos:station:TCOON:009:1,2008-01-02T19:00:00Z,27.8398,-97.0727,0.0,7.7,36.0,9.5,'11111222,11111222,11111222' 
TCOON,ioos:station:TCOON:009:1,2008-01-02T20:00:00Z,27.8398,-97.0727,0.0,6.3,33.0,7.7,'11111222,11111222,11111222' 
TCOON,ioos:station:TCOON:009:1,2008-01-02T21:00:00Z,27.8398,-97.0727,0.0,6.0,39.0,7.4,'11111222,11111222,11111222' 
TCOON,ioos:station:TCOON:009:1,2008-01-02T22:00:00Z,27.8398,-97.0727,0.0,4.7,36.0,5.9,'11111222,11111222,11111222' 
TCOON,ioos:station:TCOON:009:1,2008-01-02T23:00:00Z,27.8398,-97.0727,0.0,5.3,28.0,6.8,'11111222,11111222,11111222' 
TCOON,ioos:station:TCOON:009:1,2008-01-03T00:00:00Z,27.8398,-97.0727,0.0,2.4,40.0,2.9,'11111222,11111222,11111222' 
TCOON,ioos:station:TCOON:009:1,2008-01-03T01:00:00Z,27.8398,-97.0727,0.0,2.8,18.0,3.7,'11111222,11111222,11111222' 
TCOON,ioos:station:TCOON:009:1,2008-01-03T02:00:00Z,27.8398,-97.0727,0.0,4.0,43.0,4.8,'11111222,11111222,11111222' 
TCOON,ioos:station:TCOON:009:1,2008-01-03T03:00:00Z,27.8398,-97.0727,0.0,3.9,37.0,4.9,'11111222,11111222,11111222' 
TCOON,ioos:station:TCOON:009:1,2008-01-03T04:00:00Z,27.8398,-97.0727,0.0,4.1,34.0,5.1,'11111222,11111222,11111222' 
TCOON,ioos:station:TCOON:009:1,2008-01-03T05:00:00Z,27.8398,-97.0727,0.0,4.1,31.0,5.2,'11111222,11111222,11111222' 
TCOON,ioos:station:TCOON:009:1,2008-01-03T06:00:00Z,27.8398,-97.0727,0.0,5.0,35.0,6.1,'11111222,11111222,11111222' 
TCOON,ioos:station:TCOON:009:1,2008-01-03T07:00:00Z,27.8398,-97.0727,0.0,5.8,31.0,7.1,'11111222,11111222,11111222' 
TCOON,ioos:station:TCOON:009:1,2008-01-03T08:00:00Z,27.8398,-97.0727,0.0,4.8,29.0,6.3,'11111222,11111222,11111222' 
TCOON,ioos:station:TCOON:009:1,2008-01-03T09:00:00Z,27.8398,-97.0727,0.0,4.7,23.0,11.1,'11111222,11111222,11111222' 
TCOON,ioos:station:TCOON:009:1,2008-01-03T10:00:00Z,27.8398,-97.0727,0.0,4.8,23.0,6.0,'11111222,11111222,11111222' 
TCOON,ioos:station:TCOON:009:1,2008-01-03T11:00:00Z,27.8398,-97.0727,0.0,5.4,32.0,6.8,'11111222,11111222,11111222' 
TCOON,ioos:station:TCOON:009:1,2008-01-03T12:00:00Z,27.8398,-97.0727,0.0,4.6,23.0,5.8,'11111222,11111222,11111222' 
TCOON,ioos:station:TCOON:009:1,2008-01-03T13:00:00Z,27.8398,-97.0727,0.0,5.3,24.0,6.7,'11111222,11111222,11111222' 
TCOON,ioos:station:TCOON:009:1,2008-01-03T14:00:00Z,27.8398,-97.0727,0.0,6.9,29.0,8.2,'11111222,11111222,11111222' 
TCOON,ioos:station:TCOON:009:1,2008-01-03T16:00:00Z,27.8398,-97.0727,0.0,7.1,54.0,8.4,'11111222,11111222,11111222' 
TCOON,ioos:station:TCOON:009:1,2008-01-03T17:00:00Z,27.8398,-97.0727,0.0,6.4,45.0,7.9,'11111222,11111222,11111222' 
TCOON,ioos:station:TCOON:009:1,2008-01-03T18:00:00Z,27.8398,-97.0727,0.0,6.1,44.0,7.1,'11111222,11111222,11111222' 
TCOON,ioos:station:TCOON:009:1,2008-01-03T19:00:00Z,27.8398,-97.0727,0.0,6.2,59.0,7.3,'11111222,11111222,11111222' 
TCOON,ioos:station:TCOON:009:1,2008-01-03T20:00:00Z,27.8398,-97.0727,0.0,5.1,59.0,6.1,'11111222,11111222,11111222' 
TCOON,ioos:station:TCOON:009:1,2008-01-03T21:00:00Z,27.8398,-97.0727,0.0,4.9,90.0,6.7,'11111222,11111222,11111222' 
TCOON,ioos:station:TCOON:009:1,2008-01-03T22:00:00Z,27.8398,-97.0727,0.0,4.4,92.0,5.5,'11111222,11111222,11111222' 
TCOON,ioos:station:TCOON:009:1,2008-01-03T23:00:00Z,27.8398,-97.0727,0.0,3.9,89.0,4.9,'11111222,11111222,11111222' 
TCOON,ioos:station:TCOON:009:1,2008-01-04T00:00:00Z,27.8398,-97.0727,0.0,3.8,80.0,4.4,'11111222,11111222,11111222' 
TCOON,ioos:station:TCOON:009:1,2008-01-04T01:00:00Z,27.8398,-97.0727,0.0,1.8,32.0,2.0,'11111222,11111222,11111222' 
TCOON,ioos:station:TCOON:009:1,2008-01-04T02:00:00Z,27.8398,-97.0727,0.0,0.2,168.0,0.4,'11111222,11111222,11111222' 
TCOON,ioos:station:TCOON:009:1,2008-01-04T03:00:00Z,27.8398,-97.0727,0.0,3.2,149.0,5.2,'11111222,11111222,11111222' 
TCOON,ioos:station:TCOON:009:1,2008-01-04T04:00:00Z,27.8398,-97.0727,0.0,3.4,137.0,5.1,'11111222,11111222,11111222' 
TCOON,ioos:station:TCOON:009:1,2008-01-04T05:00:00Z,27.8398,-97.0727,0.0,3.6,131.0,4.6,'11111222,11111222,11111222' 
TCOON,ioos:station:TCOON:009:1,2008-01-04T06:00:00Z,27.8398,-97.0727,0.0,3.1,152.0,4.7,'11111222,11111222,11111222' 
TCOON,ioos:station:TCOON:009:1,2008-01-04T07:00:00Z,27.8398,-97.0727,0.0,2.1,157.0,3.5,'11111222,11111222,11111222' 
TCOON,ioos:station:TCOON:009:1,2008-01-04T08:00:00Z,27.8398,-97.0727,0.0,2.1,158.0,3.3,'11111222,11111222,11111222' 
TCOON,ioos:station:TCOON:009:1,2008-01-04T09:00:00Z,27.8398,-97.0727,0.0,2.6,158.0,4.2,'11111222,11111222,11111222' 
TCOON,ioos:station:TCOON:009:1,2008-01-04T10:00:00Z,27.8398,-97.0727,0.0,2.0,149.0,2.7,'11111222,11111222,11111222' 
TCOON,ioos:station:TCOON:009:1,2008-01-04T11:00:00Z,27.8398,-97.0727,0.0,2.0,152.0,2.8,'11111222,11111222,11111222' 
TCOON,ioos:station:TCOON:009:1,2008-01-04T12:00:00Z,27.8398,-97.0727,0.0,1.8,161.0,3.0,'11111222,11111222,11111222' 
TCOON,ioos:station:TCOON:009:1,2008-01-04T13:00:00Z,27.8398,-97.0727,0.0,2.4,145.0,3.7,'11111222,11111222,11111222' 
TCOON,ioos:station:TCOON:009:1,2008-01-04T14:00:00Z,27.8398,-97.0727,0.0,2.1,143.0,3.3,'11111222,11111222,11111222' 
TCOON,ioos:station:TCOON:009:1,2008-01-04T15:00:00Z,27.8398,-97.0727,0.0,2.8,135.0,3.9,'11111222,11111222,11111222' 
TCOON,ioos:station:TCOON:009:1,2008-01-04T16:00:00Z,27.8398,-97.0727,0.0,3.5,146.0,5.4,'11111222,11111222,11111222' 
TCOON,ioos:station:TCOON:009:1,2008-01-04T17:00:00Z,27.8398,-97.0727,0.0,4.7,138.0,6.2,'11111222,11111222,11111222' 
TCOON,ioos:station:TCOON:009:1,2008-01-04T18:00:00Z,27.8398,-97.0727,0.0,6.4,128.0,8.9,'11111222,11111222,11111222' 
TCOON,ioos:station:TCOON:009:1,2008-01-04T19:00:00Z,27.8398,-97.0727,0.0,4.1,144.0,5.9,'11111222,11111222,11111222' 
TCOON,ioos:station:TCOON:009:1,2008-01-04T20:00:00Z,27.8398,-97.0727,0.0,4.0,145.0,5.5,'11111222,11111222,11111222' 
TCOON,ioos:station:TCOON:009:1,2008-01-04T21:00:00Z,27.8398,-97.0727,0.0,5.1,139.0,8.2,'11111222,11111222,11111222' 
TCOON,ioos:station:TCOON:009:1,2008-01-04T22:00:00Z,27.8398,-97.0727,0.0,3.7,147.0,6.5,'11111222,11111222,11111222' 
TCOON,ioos:station:TCOON:009:1,2008-01-04T23:00:00Z,27.8398,-97.0727,0.0,3.1,148.0,4.8,'11111222,11111222,11111222' 
TCOON,ioos:station:TCOON:009:1,2008-01-05T00:00:00Z,27.8398,-97.0727,0.0,2.9,141.0,4.5,'11111222,11111222,11111222' 
TCOON,ioos:station:TCOON:009:1,2008-01-05T01:00:00Z,27.8398,-97.0727,0.0,4.3,159.0,7.0,'11111222,11111222,11111222' 
TCOON,ioos:station:TCOON:009:1,2008-01-05T02:00:00Z,27.8398,-97.0727,0.0,3.1,150.0,4.3,'11111222,11111222,11111222' 
TCOON,ioos:station:TCOON:009:1,2008-01-05T03:00:00Z,27.8398,-97.0727,0.0,2.9,184.0,3.8,'11111222,11111222,11111222' 
TCOON,ioos:station:TCOON:009:1,2008-01-05T04:00:00Z,27.8398,-97.0727,0.0,2.8,163.0,4.5,'11111222,11111222,11111222' 
TCOON,ioos:station:TCOON:009:1,2008-01-05T05:00:00Z,27.8398,-97.0727,0.0,3.5,178.0,5.6,'11111222,11111222,11111222' 
TCOON,ioos:station:TCOON:009:1,2008-01-05T06:00:00Z,27.8398,-97.0727,0.0,3.1,183.0,4.6,'11111222,11111222,11111222' 
TCOON,ioos:station:TCOON:009:1,2008-01-05T07:00:00Z,27.8398,-97.0727,0.0,2.0,189.0,2.8,'11111222,11111222,11111222' 
TCOON,ioos:station:TCOON:009:1,2008-01-05T08:00:00Z,27.8398,-97.0727,0.0,2.5,203.0,4.4,'11111222,11111222,11111222' 
TCOON,ioos:station:TCOON:009:1,2008-01-05T09:00:00Z,27.8398,-97.0727,0.0,2.8,193.0,3.7,'11111222,11111222,11111222' 
TCOON,ioos:station:TCOON:009:1,2008-01-05T10:00:00Z,27.8398,-97.0727,0.0,2.8,177.0,3.9,'11111222,11111222,11111222' 
TCOON,ioos:station:TCOON:009:1,2008-01-05T11:00:00Z,27.8398,-97.0727,0.0,3.6,177.0,5.3,'11111222,11111222,11111222' 
TCOON,ioos:station:TCOON:009:1,2008-01-05T12:00:00Z,27.8398,-97.0727,0.0,3.1,182.0,4.4,'11111222,11111222,11111222' 
TCOON,ioos:station:TCOON:009:1,2008-01-05T13:00:00Z,27.8398,-97.0727,0.0,2.0,195.0,2.8,'11111222,11111222,11111222' 
TCOON,ioos:station:TCOON:009:1,2008-01-05T14:00:00Z,27.8398,-97.0727,0.0,1.7,175.0,2.3,'11111222,11111222,11111222' 
TCOON,ioos:station:TCOON:009:1,2008-01-05T15:00:00Z,27.8398,-97.0727,0.0,2.9,164.0,4.2,'11111222,11111222,11111222' 
TCOON,ioos:station:TCOON:009:1,2008-01-05T16:00:00Z,27.8398,-97.0727,0.0,4.3,186.0,5.6,'11111222,11111222,11111222' 
TCOON,ioos:station:TCOON:009:1,2008-01-05T17:00:00Z,27.8398,-97.0727,0.0,3.9,181.0,5.6,'11111222,11111222,11111222' 
TCOON,ioos:station:TCOON:009:1,2008-01-05T18:00:00Z,27.8398,-97.0727,0.0,3.8,187.0,5.7,'11111222,11111222,11111222' 
TCOON,ioos:station:TCOON:009:1,2008-01-05T19:00:00Z,27.8398,-97.0727,0.0,3.7,174.0,5.2,'11111222,11111222,11111222' 
TCOON,ioos:station:TCOON:009:1,2008-01-05T20:00:00Z,27.8398,-97.0727,0.0,2.7,158.0,5.1,'11111222,11111222,11111222' 
TCOON,ioos:station:TCOON:009:1,2008-01-05T21:00:00Z,27.8398,-97.0727,0.0,4.7,151.0,6.5,'11111222,11111222,11111222' 
TCOON,ioos:station:TCOON:009:1,2008-01-05T22:00:00Z,27.8398,-97.0727,0.0,4.3,149.0,7.8,'11111222,11111222,11111222' 
TCOON,ioos:station:TCOON:009:1,2008-01-05T23:00:00Z,27.8398,-97.0727,0.0,4.2,154.0,7.5,'11111222,11111222,11111222' 
TCOON,ioos:station:TCOON:009:1,2008-01-06T00:00:00Z,27.8398,-97.0727,0.0,3.6,154.0,5.8,'11111222,11111222,11111222' 
TCOON,ioos:station:TCOON:009:1,2008-01-06T01:00:00Z,27.8398,-97.0727,0.0,3.6,165.0,5.6,'11111222,11111222,11111222' 
TCOON,ioos:station:TCOON:009:1,2008-01-06T02:00:00Z,27.8398,-97.0727,0.0,4.0,160.0,5.7,'11111222,11111222,11111222' 
TCOON,ioos:station:TCOON:009:1,2008-01-06T03:00:00Z,27.8398,-97.0727,0.0,4.5,159.0,6.4,'11111222,11111222,11111222' 
TCOON,ioos:station:TCOON:009:1,2008-01-06T04:00:00Z,27.8398,-97.0727,0.0,4.2,162.0,6.5,'11111222,11111222,11111222' 
TCOON,ioos:station:TCOON:009:1,2008-01-06T05:00:00Z,27.8398,-97.0727,0.0,4.0,160.0,6.5,'11111222,11111222,11111222' 
TCOON,ioos:station:TCOON:009:1,2008-01-06T06:00:00Z,27.8398,-97.0727,0.0,4.5,165.0,6.8,'11111222,11111222,11111222' 
TCOON,ioos:station:TCOON:009:1,2008-01-06T07:00:00Z,27.8398,-97.0727,0.0,3.2,167.0,5.5,'11111222,11111222,11111222' 
TCOON,ioos:station:TCOON:009:1,2008-01-06T08:00:00Z,27.8398,-97.0727,0.0,3.2,163.0,5.9,'11111222,11111222,11111222' 
TCOON,ioos:station:TCOON:009:1,2008-01-06T09:00:00Z,27.8398,-97.0727,0.0,4.5,174.0,6.5,'11111222,11111222,11111222' 
TCOON,ioos:station:TCOON:009:1,2008-01-06T10:00:00Z,27.8398,-97.0727,0.0,6.3,177.0,8.0,'11111222,11111222,11111222' 
TCOON,ioos:station:TCOON:009:1,2008-01-06T11:00:00Z,27.8398,-97.0727,0.0,4.4,177.0,6.5,'11111222,11111222,11111222' 
TCOON,ioos:station:TCOON:009:1,2008-01-06T12:00:00Z,27.8398,-97.0727,0.0,3.6,163.0,5.7,'11111222,11111222,11111222' 
TCOON,ioos:station:TCOON:009:1,2008-01-06T13:00:00Z,27.8398,-97.0727,0.0,3.6,157.0,5.5,'11111222,11111222,11111222' 
TCOON,ioos:station:TCOON:009:1,2008-01-06T14:00:00Z,27.8398,-97.0727,0.0,3.3,143.0,5.6,'11111222,11111222,11111222' 
TCOON,ioos:station:TCOON:009:1,2008-01-06T15:00:00Z,27.8398,-97.0727,0.0,4.0,147.0,6.3,'11111222,11111222,11111222' 
TCOON,ioos:station:TCOON:009:1,2008-01-06T16:00:00Z,27.8398,-97.0727,0.0,5.3,148.0,8.4,'11111222,11111222,11111222' 
TCOON,ioos:station:TCOON:009:1,2008-01-06T17:00:00Z,27.8398,-97.0727,0.0,4.1,148.0,7.5,'11111222,11111222,11111222' 
TCOON,ioos:station:TCOON:009:1,2008-01-06T18:00:00Z,27.8398,-97.0727,0.0,5.4,150.0,8.0,'11111222,11111222,11111222' 
TCOON,ioos:station:TCOON:009:1,2008-01-06T19:00:00Z,27.8398,-97.0727,0.0,4.3,153.0,6.9,'11111222,11111222,11111222' 
TCOON,ioos:station:TCOON:009:1,2008-01-06T20:00:00Z,27.8398,-97.0727,0.0,4.4,173.0,6.8,'11111222,11111222,11111222' 
TCOON,ioos:station:TCOON:009:1,2008-01-06T21:00:00Z,27.8398,-97.0727,0.0,2.9,154.0,4.5,'11111222,11111222,11111222' 
TCOON,ioos:station:TCOON:009:1,2008-01-06T22:00:00Z,27.8398,-97.0727,0.0,4.6,162.0,7.1,'11111222,11111222,11111222' 
TCOON,ioos:station:TCOON:009:1,2008-01-06T23:00:00Z,27.8398,-97.0727,0.0,4.5,154.0,8.0,'11111222,11111222,11111222' 
TCOON,ioos:station:TCOON:009:1,2008-01-07T00:00:00Z,27.8398,-97.0727,0.0,5.0,141.0,7.5,'11111222,11111222,11111222' 
TCOON,ioos:station:TCOON:009:1,2008-01-07T01:00:00Z,27.8398,-97.0727,0.0,4.7,144.0,7.6,'11111222,11111222,11111222' 
TCOON,ioos:station:TCOON:009:1,2008-01-07T02:00:00Z,27.8398,-97.0727,0.0,2.7,138.0,4.3,'11111222,11111222,11111222' 
TCOON,ioos:station:TCOON:009:1,2008-01-07T03:00:00Z,27.8398,-97.0727,0.0,3.0,138.0,4.7,'11111222,11111222,11111222' 
TCOON,ioos:station:TCOON:009:1,2008-01-07T04:00:00Z,27.8398,-97.0727,0.0,4.1,133.0,5.9,'11111222,11111222,11111222' 
TCOON,ioos:station:TCOON:009:1,2008-01-07T05:00:00Z,27.8398,-97.0727,0.0,4.4,139.0,6.5,'11111222,11111222,11111222' 
TCOON,ioos:station:TCOON:009:1,2008-01-07T06:00:00Z,27.8398,-97.0727,0.0,4.5,144.0,7.2,'11111222,11111222,11111222' 
TCOON,ioos:station:TCOON:009:1,2008-01-07T07:00:00Z,27.8398,-97.0727,0.0,4.7,150.0,7.5,'11111222,11111222,11111222' 
TCOON,ioos:station:TCOON:009:1,2008-01-07T08:00:00Z,27.8398,-97.0727,0.0,4.0,146.0,6.7,'11111222,11111222,11111222' 
TCOON,ioos:station:TCOON:009:1,2008-01-07T09:00:00Z,27.8398,-97.0727,0.0,3.5,153.0,5.2,'11111222,11111222,11111222' 
TCOON,ioos:station:TCOON:009:1,2008-01-07T10:00:00Z,27.8398,-97.0727,0.0,3.2,156.0,5.5,'11111222,11111222,11111222' 
TCOON,ioos:station:TCOON:009:1,2008-01-07T11:00:00Z,27.8398,-97.0727,0.0,3.1,143.0,4.3,'11111222,11111222,11111222' 
TCOON,ioos:station:TCOON:009:1,2008-01-07T12:00:00Z,27.8398,-97.0727,0.0,3.3,141.0,5.1,'11111222,11111222,11111222' 
TCOON,ioos:station:TCOON:009:1,2008-01-07T13:00:00Z,27.8398,-97.0727,0.0,4.0,134.0,6.8,'11111222,11111222,11111222' 
TCOON,ioos:station:TCOON:009:1,2008-01-07T14:00:00Z,27.8398,-97.0727,0.0,3.3,117.0,4.7,'11111222,11111222,11111222' 
TCOON,ioos:station:TCOON:009:1,2008-01-07T15:00:00Z,27.8398,-97.0727,0.0,5.0,133.0,7.2,'11111222,11111222,11111222' 
TCOON,ioos:station:TCOON:009:1,2008-01-07T16:00:00Z,27.8398,-97.0727,0.0,4.5,133.0,6.7,'11111222,11111222,11111222' 
TCOON,ioos:station:TCOON:009:1,2008-01-07T17:00:00Z,27.8398,-97.0727,0.0,5.0,136.0,6.9,'11111222,11111222,11111222' 
TCOON,ioos:station:TCOON:009:1,2008-01-07T18:00:00Z,27.8398,-97.0727,0.0,6.0,139.0,8.8,'11111222,11111222,11111222' 
TCOON,ioos:station:TCOON:009:1,2008-01-07T19:00:00Z,27.8398,-97.0727,0.0,4.8,138.0,6.9,'11111222,11111222,11111222' 
TCOON,ioos:station:TCOON:009:1,2008-01-07T20:00:00Z,27.8398,-97.0727,0.0,5.0,140.0,8.0,'11111222,11111222,11111222' 
TCOON,ioos:station:TCOON:009:1,2008-01-07T21:00:00Z,27.8398,-97.0727,0.0,6.1,150.0,10.6,'11111222,11111222,11111222' 
TCOON,ioos:station:TCOON:009:1,2008-01-07T22:00:00Z,27.8398,-97.0727,0.0,5.0,149.0,8.2,'11111222,11111222,11111222' 
TCOON,ioos:station:TCOON:009:1,2008-01-07T23:00:00Z,27.8398,-97.0727,0.0,5.8,142.0,8.9,'11111222,11111222,11111222' 
TCOON,ioos:station:TCOON:009:1,2008-01-08T00:00:00Z,27.8398,-97.0727,0.0,4.3,144.0,6.6,'11111222,11111222,11111222' 
TCOON,ioos:station:TCOON:009:1,2008-01-08T01:00:00Z,27.8398,-97.0727,0.0,3.6,146.0,6.3,'11111222,11111222,11111222' 
TCOON,ioos:station:TCOON:009:1,2008-01-08T02:00:00Z,27.8398,-97.0727,0.0,3.1,148.0,5.4,'11111222,11111222,11111222' 
TCOON,ioos:station:TCOON:009:1,2008-01-08T03:00:00Z,27.8398,-97.0727,0.0,4.8,148.0,7.9,'11111222,11111222,11111222' 
TCOON,ioos:station:TCOON:009:1,2008-01-08T04:00:00Z,27.8398,-97.0727,0.0,3.3,147.0,5.2,'11111222,11111222,11111222' 
TCOON,ioos:station:TCOON:009:1,2008-01-08T05:00:00Z,27.8398,-97.0727,0.0,4.0,146.0,7.9,'11111222,11111222,11111222' 
TCOON,ioos:station:TCOON:009:1,2008-01-08T06:00:00Z,27.8398,-97.0727,0.0,3.8,128.0,5.5,'11111222,11111222,11111222' 
TCOON,ioos:station:TCOON:009:1,2008-01-08T07:00:00Z,27.8398,-97.0727,0.0,3.0,172.0,5.1,'11111222,11111222,11111222' 
TCOON,ioos:station:TCOON:009:1,2008-01-08T08:00:00Z,27.8398,-97.0727,0.0,3.7,139.0,5.6,'11111222,11111222,11111222' 
TCOON,ioos:station:TCOON:009:1,2008-01-08T09:00:00Z,27.8398,-97.0727,0.0,4.2,141.0,6.2,'11111222,11111222,11111222' 
TCOON,ioos:station:TCOON:009:1,2008-01-08T10:00:00Z,27.8398,-97.0727,0.0,5.3,146.0,7.4,'11111222,11111222,11111222' 
TCOON,ioos:station:TCOON:009:1,2008-01-08T11:00:00Z,27.8398,-97.0727,0.0,4.2,144.0,6.3,'11111222,11111222,11111222' 
TCOON,ioos:station:TCOON:009:1,2008-01-08T12:00:00Z,27.8398,-97.0727,0.0,4.8,147.0,6.8,'11111222,11111222,11111222' 
TCOON,ioos:station:TCOON:009:1,2008-01-08T13:00:00Z,27.8398,-97.0727,0.0,4.0,139.0,5.4,'11111222,11111222,11111222' 
TCOON,ioos:station:TCOON:009:1,2008-01-08T14:00:00Z,27.8398,-97.0727,0.0,4.4,132.0,6.4,'11111222,11111222,11111222' 
TCOON,ioos:station:TCOON:009:1,2008-01-08T15:00:00Z,27.8398,-97.0727,0.0,3.1,136.0,4.3,'11111222,11111222,11111222' 
TCOON,ioos:station:TCOON:009:1,2008-01-08T16:00:00Z,27.8398,-97.0727,0.0,1.8,256.0,2.4,'11111222,11111222,11111222' 
TCOON,ioos:station:TCOON:009:1,2008-01-08T17:00:00Z,27.8398,-97.0727,0.0,3.3,167.0,4.7,'11111222,11111222,11111222' 
TCOON,ioos:station:TCOON:009:1,2008-01-08T18:00:00Z,27.8398,-97.0727,0.0,2.7,188.0,4.6,'11111222,11111222,11111222' 
TCOON,ioos:station:TCOON:009:1,2008-01-08T19:00:00Z,27.8398,-97.0727,0.0,2.4,186.0,2.8,'11111222,11111222,11111222' 
TCOON,ioos:station:TCOON:009:1,2008-01-08T20:00:00Z,27.8398,-97.0727,0.0,1.4,161.0,2.4,'11111222,11111222,11111222' 
TCOON,ioos:station:TCOON:009:1,2008-01-08T21:00:00Z,27.8398,-97.0727,0.0,2.4,99.0,3.2,'11111222,11111222,11111222' 
TCOON,ioos:station:TCOON:009:1,2008-01-08T22:00:00Z,27.8398,-97.0727,0.0,2.5,115.0,3.1,'11111222,11111222,11111222' 
TCOON,ioos:station:TCOON:009:1,2008-01-08T23:00:00Z,27.8398,-97.0727,0.0,3.3,64.0,3.6,'11111222,11111222,11111222' 
TCOON,ioos:station:TCOON:009:1,2008-01-09T00:00:00Z,27.8398,-97.0727,0.0,7.8,29.0,10.0,'11111222,11111222,11111222' 
TCOON,ioos:station:TCOON:009:1,2008-01-09T01:00:00Z,27.8398,-97.0727,0.0,6.9,33.0,8.0,'11111222,11111222,11111222' 
TCOON,ioos:station:TCOON:009:1,2008-01-09T02:00:00Z,27.8398,-97.0727,0.0,6.9,33.0,9.5,'11111222,11111222,11111222' 
TCOON,ioos:station:TCOON:009:1,2008-01-09T03:00:00Z,27.8398,-97.0727,0.0,6.0,29.0,7.7,'11111222,11111222,11111222' 
TCOON,ioos:station:TCOON:009:1,2008-01-09T04:00:00Z,27.8398,-97.0727,0.0,6.5,29.0,8.3,'11111222,11111222,11111222' 
TCOON,ioos:station:TCOON:009:1,2008-01-09T05:00:00Z,27.8398,-97.0727,0.0,8.4,27.0,11.0,'11111222,11111222,11111222' 
TCOON,ioos:station:TCOON:009:1,2008-01-09T06:00:00Z,27.8398,-97.0727,0.0,10.3,25.0,13.2,'11111222,11111222,11111222' 
TCOON,ioos:station:TCOON:009:1,2008-01-09T07:00:00Z,27.8398,-97.0727,0.0,11.3,26.0,15.1,'11111222,11111222,11111222' 
TCOON,ioos:station:TCOON:009:1,2008-01-09T08:00:00Z,27.8398,-97.0727,0.0,6.9,23.0,8.8,'11111222,11111222,11111222' 
TCOON,ioos:station:TCOON:009:1,2008-01-09T09:00:00Z,27.8398,-97.0727,0.0,5.9,20.0,8.4,'11111222,11111222,11111222' 
TCOON,ioos:station:TCOON:009:1,2008-01-09T10:00:00Z,27.8398,-97.0727,0.0,8.2,19.0,10.3,'11111222,11111222,11111222' 
TCOON,ioos:station:TCOON:009:1,2008-01-09T11:00:00Z,27.8398,-97.0727,0.0,8.1,28.0,11.7,'11111222,11111222,11111222' 
TCOON,ioos:station:TCOON:009:1,2008-01-09T12:00:00Z,27.8398,-97.0727,0.0,8.3,29.0,10.6,'11111222,11111222,11111222' 
TCOON,ioos:station:TCOON:009:1,2008-01-09T13:00:00Z,27.8398,-97.0727,0.0,5.7,35.0,7.0,'11111222,11111222,11111222' 
TCOON,ioos:station:TCOON:009:1,2008-01-09T14:00:00Z,27.8398,-97.0727,0.0,6.4,41.0,8.1,'11111222,11111222,11111222' 
TCOON,ioos:station:TCOON:009:1,2008-01-09T17:00:00Z,27.8398,-97.0727,0.0,4.8,53.0,5.7,'11111222,11111222,11111222' 
TCOON,ioos:station:TCOON:009:1,2008-01-09T18:00:00Z,27.8398,-97.0727,0.0,4.5,67.0,5.9,'11111222,11111222,11111222' 
TCOON,ioos:station:TCOON:009:1,2008-01-09T19:00:00Z,27.8398,-97.0727,0.0,3.8,54.0,4.5,'11111222,11111222,11111222' 